Wind_Speed
10 11 11 13 13 12 11 12 13 12 11 10 10 10 10 11 10 11 9 8 7 8 9 10 10 10 10 10 10 9 8 8 9 10 11 11 12 12 12 11 10 10 9 9 9 8 8 8 8 7 8 9 10 12 14 14 15 15 14 13 12 12 11 11 11 11 11 12 13 13 12 11 13 13 12 11 10 11 12 11 11 12 13 12 11
12 12 11 13 13 12 11 12 13 13 12 11 11 11 11 11 11 11 11 9 9 9 10 10 10 11 11 11 10 9 8 9 10 10 12 13 12 11 11 11 10 9 9 8 8 8 8 8 8 9 10 12 13 14 16 15 15 15 14 13 11 10 9 9 9 10 10 11 11 12 12 12 13 12 11 11 11 10 10 11 11 11 12 10 10
13 12 10 13 13 12 11 12 14 13 13 12 11 11 12 12 12 12 12 11 11 10 11 11 11 11 11 11 10 9 8 10 10 11 12 12 11 11 10 10 10 10 9 9 9 9 9 9 9 10 12 15 16 15 16 16 15 15 13 12 10 10 9 8 9 10 11 10 11 14 15 14 12 11 11 12 13 14 13 13 13 12 12 10 11
12 12 11 13 14 12 12 13 14 14 13 13 12 12 12 13 13 13 13 12 12 11 11 11 11 11 11 10 9 9 9 10 10 11 12 11 11 11 11 10 10 10 9 10 10 10 9 9 10 12 15 17 17 16 16 15 15 14 13 12 11 11 11 11 10 10 10 11 15 17 18 17 15 12 12 12 13 14 13 13 13 13 12 11 11
13 13 12 14 15 13 13 14 14 14 14 13 12 12 12 13 14 15 14 14 12 12 12 12 12 11 10 9 9 10 10 10 11 12 12 12 11 11 11 10 10 9 9 10 10 10 10 10 11 13 16 17 16 16 15 15 14 14 13 12 12 13 12 12 10 9 9 11 15 17 17 18 16 12 12 11 12 13 13 13 14 13 11 11 11
16 14 13 15 15 14 14 15 15 15 15 14 13 13 13 13 14 15 15 15 13 13 12 12 12 11 10 9 10 11 11 11 12 13 12 12 11 11 11 10 11 11 8 9 11 10 11 11 11 14 16 15 15 15 14 14 14 13 13 12 13 13 12 11 10 8 7 9 10 10 13 16 14 10 10 11 12 12 13 13 13 11 10 10 10
17 16 15 17 15 15 15 16 16 16 16 15 14 13 13 13 14 14 15 15 14 14 13 13 12 11 10 10 11 11 11 12 13 13 12 12 11 11 11 10 12 13 9 8 11 11 11 11 11 13 14 14 13 14 14 13 13 12 12 11 12 12 12 10 8 6 5 6 5 5 10 14 12 10 9 11 11 11 12 11 11 10 9 8 8
16 17 16 17 15 16 16 16 17 17 17 16 15 14 14 13 14 14 14 15 14 14 14 13 12 11 11 11 12 12 12 12 13 13 12 12 11 11 11 11 13 14 11 9 10 10 11 10 11 12 12 13 12 12 12 11 11 11 10 10 10 10 8 7 6 4 5 6 5 6 11 11 10 10 10 11 10 11 11 9 10 9 9 9 9
14 16 16 17 16 17 18 17 18 18 18 17 16 15 14 13 13 13 14 14 13 14 13 12 12 11 11 12 12 12 12 12 12 13 13 12 11 12 12 12 12 13 12 11 10 10 11 10 10 12 12 13 12 12 11 10 10 9 8 8 8 8 6 5 4 2 3 4 4 9 12 11 10 11 13 12 10 10 9 7 9 10 10 9 8
14 15 16 16 16 18 19 19 19 19 19 18 17 16 15 14 13 12 13 12 12 12 12 11 11 11 11 12 12 12 12 11 11 13 13 12 12 12 12 11 11 12 11 11 11 10 11 11 10 11 12 11 11 11 11 9 8 8 7 6 6 5 4 3 1 1 1 1 6 10 11 13 11 12 13 11 9 10 8 8 9 8 8 8 7
15 15 15 17 17 18 20 19 20 21 20 20 18 17 15 14 13 12 12 11 11 11 11 11 12 12 12 12 12 12 12 12 11 12 13 13 12 12 12 12 11 12 12 11 12 11 10 11 11 11 11 10 11 11 10 8 7 6 5 5 4 3 2 1 1 1 2 2 9 10 13 15 12 13 13 10 10 10 9 9 7 4 6 7 6
17 14 14 17 17 17 21 20 21 22 21 21 19 18 16 15 14 13 12 12 11 11 11 13 12 12 11 12 12 13 12 12 11 12 13 13 12 11 11 11 11 11 11 11 12 12 10 11 11 10 11 12 12 11 10 8 6 5 4 4 3 3 2 2 2 3 3 5 11 13 16 14 12 13 12 10 9 9 9 8 4 4 7 8 7
17 14 13 17 18 17 21 20 20 21 22 21 20 19 17 15 14 13 13 12 11 10 11 13 12 11 11 12 12 12 12 12 12 12 13 13 12 11 11 11 11 11 10 10 12 12 11 11 11 11 13 13 12 11 9 8 6 5 3 3 3 2 2 3 1 2 3 8 14 15 15 13 11 11 10 8 8 9 9 7 6 7 8 8 7
17 15 14 15 17 19 21 21 21 20 21 21 21 19 17 16 14 13 12 11 10 10 11 11 10 11 11 12 12 12 13 13 13 13 13 13 12 11 11 10 10 11 11 11 12 13 12 12 12 13 14 12 11 10 9 8 7 5 4 3 2 2 2 3 1 1 5 11 13 12 11 11 10 9 8 8 10 11 10 9 9 9 8 7 8
17 15 14 14 16 21 23 21 20 20 20 20 20 18 16 15 14 13 11 11 10 9 10 10 10 10 11 12 12 13 14 14 14 13 13 13 12 11 10 10 10 11 12 12 13 13 13 13 14 13 12 11 11 10 9 8 7 6 5 3 2 4 5 4 1 2 4 10 12 11 10 10 9 9 9 10 12 11 11 11 10 9 8 8 8
16 15 14 16 15 19 24 22 20 19 18 18 18 16 16 16 15 14 12 11 10 9 9 9 9 9 11 12 12 14 15 15 15 14 13 12 12 12 11 10 12 12 11 12 12 13 14 14 13 12 11 11 10 9 8 7 7 5 4 2 1 5 7 6 5 3 2 9 15 15 13 11 9 10 11 12 12 11 10 11 10 9 9 8 8
16 16 15 18 15 17 22 21 19 18 17 17 16 16 17 17 15 14 12 11 10 10 11 11 11 10 12 13 13 15 16 15 15 15 13 13 13 12 11 10 13 13 11 11 12 13 14 14 13 12 11 11 10 9 8 7 6 5 4 3 2 6 6 6 4 2 1 11 18 17 13 10 9 10 12 12 12 11 10 11 11 9 9 7 7
16 16 16 17 16 17 20 19 17 16 17 19 19 19 19 18 15 13 11 11 12 12 12 13 13 12 13 14 14 15 16 15 16 16 14 13 13 13 11 10 12 12 11 12 13 13 14 14 13 12 11 10 10 8 7 7 5 4 3 3 4 6 5 5 3 0 3 12 16 15 10 9 9 11 13 12 12 11 11 11 10 9 8 7 7
15 15 16 17 18 19 19 18 17 16 19 22 22 21 19 17 15 13 11 12 13 12 12 13 14 12 13 14 14 15 15 16 16 16 16 14 13 13 12 11 10 11 11 12 13 14 14 14 12 11 10 9 9 8 7 6 4 3 2 3 3 4 4 5 4 1 5 12 14 12 8 7 8 10 14 13 12 12 11 10 9 8 8 8 8
15 15 16 18 20 20 21 20 20 20 23 25 24 22 21 18 16 15 14 14 14 13 14 14 14 12 13 15 14 14 15 15 16 16 15 14 14 13 12 11 10 10 11 11 13 14 14 13 12 10 9 9 8 7 7 6 4 3 1 1 0 2 4 5 5 2 6 12 12 9 5 5 8 11 14 14 13 13 11 10 10 9 7 9 8
16 16 16 18 20 21 21 21 23 25 26 25 25 23 21 19 18 18 17 16 15 15 16 15 15 14 13 14 12 13 16 15 16 17 16 14 14 13 12 12 11 10 11 11 12 13 14 13 12 11 9 9 8 7 6 5 5 3 2 1 2 2 4 5 6 5 8 10 8 6 3 5 9 11 14 14 14 13 11 11 12 9 6 9 9
17 17 17 18 21 22 20 20 23 25 26 26 26 23 20 20 19 19 18 17 17 16 16 14 15 15 14 14 12 13 16 15 15 17 17 15 14 13 13 12 11 11 11 11 11 12 13 13 12 11 10 9 8 7 6 5 5 4 3 3 3 4 3 3 7 4 11 10 6 4 3 7 10 12 14 15 14 13 12 11 11 8 7 9 9
18 18 19 20 20 21 21 20 21 24 25 25 25 21 19 22 19 17 18 18 18 17 17 15 16 16 14 15 13 13 14 14 16 17 16 14 14 14 13 12 11 10 10 10 11 11 11 12 12 11 10 9 8 8 7 7 6 5 4 5 4 5 4 6 7 4 13 9 5 2 4 8 11 14 15 15 15 13 12 10 10 8 7 8 9
19 18 20 22 21 21 22 22 19 21 24 25 25 20 18 21 19 17 19 19 21 20 19 18 18 18 16 15 14 13 14 14 15 16 14 14 14 13 12 11 11 10 10 10 11 11 11 11 12 11 11 11 10 9 7 10 11 6 4 5 5 5 5 6 4 6 10 6 4 2 5 9 11 14 16 16 15 14 12 11 11 9 8 8 8
19 18 19 23 22 20 22 24 22 21 24 25 24 22 18 19 19 19 21 21 22 21 20 19 18 19 18 17 14 14 14 14 15 15 15 14 13 12 12 12 12 11 11 11 11 11 13 13 12 13 13 12 12 11 10 13 14 9 6 6 7 6 7 6 4 5 8 5 3 4 6 8 11 13 16 16 14 14 13 12 11 10 9 9 8
20 19 19 23 24 21 21 24 25 23 25 26 23 23 18 18 20 20 20 21 21 21 20 20 20 19 20 19 17 15 13 13 15 16 16 15 13 13 13 13 13 13 13 13 13 13 14 14 13 14 14 13 13 13 15 16 13 10 9 9 9 8 8 7 5 5 7 5 4 5 6 8 11 13 15 16 15 15 13 12 12 11 10 9 9
20 20 19 22 25 23 21 22 25 24 25 26 25 23 17 17 20 19 20 22 21 21 21 21 21 19 20 20 19 17 13 13 14 15 16 14 15 17 16 15 15 17 16 16 16 15 16 15 14 15 14 14 15 16 19 19 14 11 12 10 8 9 8 8 6 7 8 7 6 6 6 8 10 12 14 15 16 15 13 13 12 12 11 10 10
19 19 19 22 25 25 23 23 26 26 25 25 26 24 17 16 19 19 21 21 21 21 21 21 21 19 19 21 21 18 15 15 14 15 17 16 16 16 16 18 19 20 19 18 18 17 17 16 16 16 15 15 17 19 18 15 14 10 11 10 8 10 9 7 8 9 10 10 7 7 6 7 9 11 13 14 15 14 13 13 12 12 12 11 10
19 20 19 20 25 26 24 25 27 26 26 25 26 23 18 17 18 20 21 19 19 19 19 20 21 20 19 21 22 19 15 16 17 15 17 18 15 14 15 20 21 19 19 19 18 19 18 16 18 18 17 17 18 18 14 12 13 10 10 10 9 10 9 8 8 9 10 11 9 8 7 7 9 10 12 13 14 14 14 14 13 12 12 12 11
18 19 19 19 24 27 25 26 27 26 26 25 23 22 21 18 18 21 21 19 19 19 20 21 21 19 19 21 23 23 18 16 19 17 19 19 16 16 18 19 19 18 20 20 18 19 17 17 18 18 17 17 17 16 13 14 15 14 11 11 11 10 8 8 9 8 9 11 10 9 8 7 8 9 10 12 13 14 14 14 13 13 12 12 11
17 18 19 18 22 26 27 26 26 25 26 25 23 23 22 18 18 21 21 22 23 23 23 22 20 19 21 22 23 25 21 18 20 18 20 20 18 20 21 21 21 19 20 19 17 17 14 16 17 16 16 16 16 15 13 15 14 15 12 12 10 9 8 8 8 9 11 12 12 11 10 9 8 8 9 11 13 14 15 15 14 13 13 12 12
17 18 18 18 21 26 26 27 27 25 26 26 25 24 21 18 20 22 22 24 25 25 25 21 18 18 21 21 21 23 23 19 20 19 18 19 19 21 21 22 22 20 20 18 15 15 12 15 16 16 17 17 16 15 14 14 15 12 15 13 10 9 9 8 8 8 10 12 14 12 11 10 9 9 9 10 12 13 15 16 15 14 13 13 12
16 17 18 18 21 25 25 26 26 25 25 26 26 24 20 19 21 23 24 24 25 26 24 20 16 16 18 20 19 21 21 18 19 19 16 17 19 21 20 22 23 20 19 18 15 14 12 15 17 16 18 18 16 16 15 15 15 13 9 10 9 10 11 9 8 8 9 12 13 12 11 11 11 10 9 10 12 13 15 16 16 14 13 13 12
15 17 18 18 21 24 24 25 26 26 25 24 24 23 20 20 22 23 24 25 25 25 24 21 17 16 17 18 18 19 20 18 17 17 16 17 20 22 21 21 23 20 17 17 15 13 14 16 17 17 18 17 14 14 14 13 14 12 6 5 6 9 11 8 8 8 9 11 12 12 12 11 12 13 11 11 12 13 14 15 15 14 14 13 12
14 16 18 18 20 23 24 24 26 27 25 24 24 22 21 22 24 24 23 23 23 25 26 25 21 19 18 18 17 18 19 19 19 18 18 20 22 23 22 21 22 21 18 17 14 14 16 16 16 18 16 14 12 12 12 12 12 9 6 6 5 7 10 8 7 8 8 9 10 13 13 12 12 14 13 12 12 12 13 14 14 14 14 13 13
16 15 18 18 19 21 23 23 25 26 26 25 24 23 23 24 26 25 24 23 23 25 26 26 24 20 20 19 18 18 18 19 21 20 19 20 21 23 24 22 22 21 20 17 15 15 15 16 16 15 12 11 14 15 14 13 11 9 6 6 6 8 10 9 8 9 8 9 10 12 14 14 14 13 13 13 13 12 12 12 13 13 14 14 13
18 15 17 19 18 20 21 22 24 25 25 26 26 26 26 25 25 25 25 24 24 26 25 26 25 21 20 18 18 20 19 19 21 21 21 21 21 23 24 23 21 21 21 18 16 13 12 15 15 14 13 12 16 19 16 11 9 10 9 6 7 8 10 9 9 9 9 9 10 11 12 14 16 15 14 14 14 13 12 11 12 12 13 14 14
20 17 17 18 17 19 20 19 21 24 24 25 29 31 27 24 24 24 24 23 23 24 24 24 24 22 21 19 17 19 19 19 20 21 22 23 22 22 22 22 21 21 21 19 17 15 14 14 12 14 18 15 16 19 15 10 7 8 10 8 8 9 9 10 10 10 9 9 10 12 11 13 16 17 16 15 15 13 12 11 11 11 12 14 14
19 17 16 18 17 17 18 18 20 23 23 24 27 31 28 25 24 23 22 23 23 24 23 23 24 23 22 20 18 18 19 19 20 21 22 23 23 22 22 22 22 22 21 20 19 19 18 14 9 12 16 15 13 13 8 7 7 8 9 9 9 11 11 9 10 11 10 10 10 11 12 13 15 17 16 15 16 14 12 11 11 12 11 12 13
17 16 15 17 17 17 17 18 19 22 23 23 24 28 30 28 26 24 24 25 25 25 24 24 23 23 24 22 19 18 20 20 21 22 22 23 23 23 24 23 23 23 22 21 22 22 20 16 12 11 14 14 11 9 5 6 8 9 10 10 10 11 11 10 11 11 10 10 9 10 13 12 13 16 16 15 16 16 13 12 11 11 10 9 10
16 16 15 16 17 17 17 18 20 21 22 23 23 25 27 28 28 27 27 27 26 25 24 23 21 21 23 24 22 21 21 22 23 23 23 23 23 23 24 24 23 23 23 23 23 22 19 18 15 13 14 15 13 10 9 7 8 9 7 8 11 11 11 11 11 11 11 11 10 11 12 11 13 16 17 16 17 16 14 14 12 9 8 9 9
18 17 14 15 16 16 17 17 20 22 22 23 24 24 24 24 25 26 26 25 25 26 25 24 21 19 21 24 25 24 21 22 23 24 24 23 22 21 22 23 23 23 23 22 22 20 19 19 18 16 15 16 15 12 12 11 9 9 6 4 7 10 11 12 11 12 12 11 11 12 11 11 13 15 16 17 18 17 16 16 14 11 11 13 12
18 18 15 16 16 16 16 17 19 22 22 23 23 23 23 22 22 23 24 23 23 25 23 23 22 20 22 24 24 24 22 21 22 23 23 22 20 20 20 21 21 22 22 21 21 20 19 19 19 17 14 14 15 13 14 15 11 9 5 2 3 4 7 10 12 14 13 13 12 11 10 10 11 11 12 17 18 15 14 14 14 13 13 12 11
15 15 14 17 17 16 16 17 19 21 22 23 23 23 22 21 20 21 22 21 21 22 20 20 23 22 22 24 23 23 23 23 22 22 24 23 23 23 23 22 22 23 23 22 23 22 21 21 20 18 15 13 13 15 15 15 13 9 4 1 2 2 3 4 9 12 12 12 11 10 10 9 9 9 9 14 14 12 11 12 12 12 11 10 9
15 17 17 17 17 16 17 18 19 20 21 23 24 23 22 21 19 19 20 19 19 21 19 19 22 22 23 25 25 24 24 24 23 22 23 23 24 25 24 25 25 25 25 23 24 23 23 23 20 18 18 15 14 15 16 16 16 13 7 3 2 2 2 1 3 6 6 7 7 7 8 7 7 7 6 5 5 7 9 9 9 9 9 9 8
15 16 18 18 17 17 19 19 19 20 20 22 24 23 22 22 20 19 20 18 17 19 20 20 22 23 23 25 26 26 26 24 23 24 24 23 23 23 23 24 25 25 25 24 24 23 23 23 19 17 18 18 15 13 14 17 19 16 11 8 4 2 2 1 0 1 1 4 5 5 6 4 5 5 6 4 2 4 6 9 9 8 9 9 8
13 11 13 17 19 18 19 20 20 20 20 21 24 23 23 23 22 20 20 19 17 19 21 22 22 23 22 24 26 27 28 25 24 25 24 25 24 22 22 24 24 23 23 24 24 23 24 23 20 18 19 18 16 13 13 15 16 15 13 11 9 4 3 1 1 1 0 2 4 5 5 4 4 4 7 8 5 6 5 9 12 9 10 10 8
14 12 9 13 19 20 18 20 21 21 21 21 24 24 23 23 24 22 21 22 20 20 22 22 22 23 22 24 25 26 27 26 25 26 25 26 26 23 22 24 24 22 21 23 24 23 24 23 21 20 20 18 16 16 15 14 15 15 11 9 8 6 5 5 3 2 2 0 2 4 4 3 5 5 4 5 4 6 5 7 11 10 10 10 8
14 13 11 12 17 19 19 19 21 22 22 22 24 25 25 23 23 23 22 23 23 22 22 23 23 23 23 24 24 25 26 26 25 26 27 26 26 24 22 23 25 23 21 22 22 22 23 23 21 21 21 20 19 18 16 17 19 16 11 10 9 7 7 6 5 4 3 2 1 1 2 2 3 5 4 3 3 6 7 7 10 8 7 8 9
16 14 13 11 13 17 21 22 21 23 23 23 24 25 25 24 24 24 24 23 23 23 22 23 24 24 24 24 24 24 26 26 25 25 26 25 24 25 24 23 24 23 22 21 21 21 23 23 21 21 21 20 21 20 18 20 21 16 12 11 10 8 6 5 6 7 4 2 2 0 1 2 2 2 3 3 3 6 8 8 10 9 7 9 10
19 17 16 13 10 15 20 22 22 23 23 24 25 26 26 26 25 25 25 25 24 22 22 23 24 24 23 24 25 25 25 26 26 25 25 24 24 26 27 25 23 23 22 22 22 23 25 25 22 21 22 20 19 19 18 20 20 15 12 13 12 11 8 4 6 10 6 3 3 2 1 2 3 2 2 3 3 5 8 9 9 9 10 11 10
Wind_Direction
146 147 152 158 151 148 155 160 164 169 168 162 154 147 141 143 146 146 148 151 149 146 141 135 134 136 133 128 127 119 105 100 101 100 99 98 94 90 89 94 100 103 105 97 89 91 87 89 95 97 102 107 106 107 107 102 101 101 98 95 90 86 80 75 74 81 88 94 96 95 95 96 95 91 92 88 84 103 114 104 91 90 97 99 97
144 142 153 159 154 153 157 160 164 169 169 164 157 148 144 144 144 145 148 149 144 143 142 141 140 140 132 126 125 117 109 108 106 104 102 98 96 95 94 97 103 107 109 105 98 98 94 94 97 100 107 112 109 106 107 104 102 99 94 90 84 80 75 76 81 93 100 100 98 102 102 97 96 92 91 88 82 96 111 108 102 98 104 108 104
139 140 159 161 156 158 158 161 166 172 172 167 160 148 146 144 143 144 148 150 147 146 144 145 144 140 133 128 124 118 116 114 112 110 107 103 105 106 105 105 106 108 112 113 108 104 101 99 100 105 111 114 111 109 109 107 104 97 92 88 80 79 85 96 103 109 112 108 106 106 102 96 94 92 92 93 88 95 103 108 111 104 103 104 102
143 145 165 166 160 162 160 165 169 175 175 170 162 150 148 144 145 145 147 153 149 149 147 146 146 141 136 129 123 123 125 120 117 115 114 113 112 110 109 110 109 114 117 115 111 106 103 101 105 112 114 113 113 113 112 110 105 99 95 87 82 89 101 113 115 119 121 117 114 106 97 90 87 93 98 99 95 95 99 103 105 102 102 102 100
152 157 174 170 164 168 165 168 173 176 178 172 163 156 153 148 148 148 150 154 152 152 149 148 148 145 140 131 128 131 132 127 122 119 119 117 116 116 115 114 114 119 120 113 111 108 103 102 107 115 115 114 115 115 114 111 107 102 96 87 89 101 111 119 123 132 133 131 124 110 97 85 83 95 102 104 100 95 96 97 97 98 102 103 104
158 166 178 168 167 174 169 171 177 178 180 176 169 164 159 155 152 149 152 155 154 153 151 151 152 151 146 138 138 140 138 132 126 123 122 121 121 122 122 126 126 123 120 111 112 112 107 107 111 117 118 116 118 117 116 112 109 106 100 93 96 106 114 116 122 131 136 148 146 126 103 89 87 102 107 109 105 100 99 98 101 105 107 106 105
163 168 170 164 170 179 174 174 177 181 183 180 175 170 164 160 156 151 152 156 155 155 156 158 160 159 153 148 148 145 139 132 129 128 128 130 130 133 133 139 140 130 123 113 113 117 114 113 115 118 120 119 119 118 117 113 112 110 105 99 99 108 116 117 125 138 153 167 173 150 111 95 98 110 115 115 108 104 102 103 110 111 109 106 100
167 168 166 164 175 182 178 178 179 184 185 182 179 174 170 164 161 156 153 155 154 157 159 162 166 164 159 156 151 143 138 134 134 135 138 141 139 139 132 131 144 140 129 120 116 119 119 118 117 120 126 125 121 122 122 118 112 111 109 103 102 110 118 123 132 154 180 205 215 158 124 114 115 118 119 116 109 108 109 110 115 114 108 103 98
170 169 168 166 180 185 180 182 182 186 186 184 182 179 175 169 165 160 157 157 157 163 165 167 170 167 162 156 150 144 141 141 143 147 148 148 143 138 131 126 137 142 133 130 127 123 122 122 121 124 130 128 125 128 128 121 112 110 108 101 104 116 126 130 138 158 196 236 197 137 122 127 131 125 118 115 117 117 118 120 121 122 116 109 107
173 172 171 168 186 190 182 183 184 187 187 184 185 183 180 176 170 166 167 166 166 172 175 174 174 169 162 154 151 151 151 152 155 158 153 148 146 141 140 135 136 142 141 142 138 131 130 128 124 125 130 131 132 133 130 123 113 111 109 106 109 122 135 137 160 180 242 248 125 121 119 126 128 125 125 125 130 127 129 137 133 134 133 122 114
174 175 173 175 192 191 184 185 186 187 187 186 187 186 183 181 176 177 177 177 177 178 179 174 170 165 159 158 159 161 163 164 163 159 153 151 149 145 146 145 144 146 145 145 143 141 143 136 130 131 133 137 138 135 132 128 120 117 111 113 118 137 164 193 247 290 285 138 119 120 122 129 129 126 133 137 135 135 144 153 141 130 140 129 114
174 177 170 178 194 192 188 187 187 187 188 187 186 186 185 184 182 186 185 185 183 178 174 165 163 160 159 166 169 173 173 168 163 157 154 154 152 151 151 148 144 140 138 144 145 147 149 142 141 144 141 140 140 137 136 135 130 124 115 114 123 151 185 238 256 320 335 118 123 124 124 134 140 135 144 148 148 153 159 165 152 121 134 129 123
174 176 165 183 197 192 192 189 188 188 188 186 184 185 184 186 187 190 191 189 184 175 168 161 160 160 167 176 178 183 179 170 164 160 159 158 157 156 152 147 145 143 142 146 147 150 153 151 153 151 145 143 141 140 140 139 133 125 112 115 135 165 206 235 235 6 62 116 131 136 137 147 151 148 154 157 160 159 154 152 140 136 139 133 131
173 171 164 184 195 192 194 191 188 188 188 184 180 183 184 187 187 189 192 189 182 174 166 162 162 166 179 186 184 188 184 174 166 165 163 162 163 159 154 151 153 154 151 150 154 160 159 157 155 150 146 146 144 143 142 137 131 120 106 112 147 163 162 179 224 350 118 129 145 150 154 163 161 157 155 151 149 146 148 149 142 142 145 143 142
173 172 169 175 188 191 192 190 187 187 186 181 179 182 184 187 187 189 191 187 180 174 171 167 166 177 194 194 191 192 187 178 169 167 167 167 166 159 159 157 154 161 159 156 162 164 159 156 153 151 148 148 147 145 142 135 128 116 109 110 154 172 166 174 227 267 153 139 149 154 161 165 158 153 145 143 145 150 155 154 151 149 150 151 152
173 177 175 171 181 185 187 189 185 184 183 177 178 183 187 190 190 191 190 184 178 174 174 174 177 191 204 200 196 194 190 183 173 170 172 172 169 164 167 161 151 160 164 160 164 160 156 157 156 155 153 153 151 146 144 137 130 118 109 108 185 190 186 210 230 266 234 152 149 151 161 159 148 145 142 143 149 162 163 158 157 155 158 160 161
175 174 174 172 175 178 184 185 180 180 177 175 181 188 192 192 191 190 188 180 177 179 178 184 189 199 209 204 201 198 192 186 177 173 176 176 173 173 176 170 159 160 165 164 165 163 161 162 161 161 158 157 154 151 149 142 139 126 101 98 183 189 185 215 233 312 19 145 149 154 160 152 146 145 146 149 153 163 164 163 162 157 164 165 165
174 172 173 174 174 176 179 177 174 173 171 180 189 194 195 193 190 184 184 183 184 185 184 190 194 200 208 205 204 203 195 189 183 178 178 181 180 180 182 178 169 165 166 168 169 169 167 167 169 167 163 160 158 158 155 153 156 143 100 93 159 186 200 219 204 308 128 136 147 159 159 147 150 152 154 159 158 164 168 170 173 166 170 172 171
176 177 175 175 178 175 174 172 163 163 177 190 195 195 195 192 186 179 183 192 193 189 189 195 196 200 206 207 208 205 199 193 189 184 180 183 186 186 186 181 176 173 170 172 174 174 174 173 175 173 169 165 164 167 165 168 173 167 127 101 136 181 207 206 183 213 148 138 146 154 152 149 160 164 162 166 163 166 175 181 184 176 176 180 179
178 184 180 176 181 176 174 170 159 171 188 194 196 195 194 190 181 181 188 194 198 194 195 199 198 202 208 211 211 206 204 200 193 189 187 187 191 191 191 187 183 184 178 178 178 179 183 182 183 182 179 173 172 176 178 187 190 194 182 126 135 206 201 185 187 218 143 146 156 154 151 162 173 175 166 168 169 169 178 187 187 185 184 183 184
181 188 189 180 179 179 178 167 165 183 192 190 195 194 191 187 182 188 191 192 200 202 201 199 199 201 208 212 213 210 207 205 195 191 195 194 195 194 194 193 189 192 188 185 185 185 190 192 193 191 189 185 183 189 194 203 205 214 203 201 276 233 205 196 229 235 149 150 163 157 169 183 180 172 163 169 174 174 181 187 189 195 190 183 186
182 189 194 185 178 182 180 166 174 192 193 189 193 193 188 183 182 189 188 191 201 207 206 201 201 200 204 210 212 216 211 205 197 193 199 198 196 195 195 197 196 198 195 194 194 193 195 198 203 201 199 196 198 206 208 216 219 220 215 236 251 216 214 264 274 219 151 154 159 163 193 189 182 168 165 175 180 181 183 187 193 199 193 185 188
183 187 191 190 179 182 181 170 182 197 194 192 193 190 189 185 179 183 186 193 201 208 208 201 203 201 201 209 210 216 214 205 198 198 201 199 198 194 193 200 203 205 204 205 205 204 205 204 209 210 209 207 215 218 217 234 238 224 218 233 226 203 227 283 293 137 144 156 141 162 199 185 183 172 170 178 184 186 185 189 195 198 194 191 196
186 186 186 189 184 182 181 176 187 199 194 192 192 187 188 186 176 179 190 198 202 207 208 203 204 202 202 209 209 215 215 207 202 202 204 202 200 196 194 198 205 214 213 213 215 216 215 215 216 215 218 219 223 224 223 236 237 233 230 225 216 205 215 249 273 119 135 145 121 175 195 182 181 177 176 179 185 190 190 192 194 198 198 201 206
185 189 185 183 185 182 177 178 192 200 192 189 190 186 185 185 177 180 194 202 203 206 209 206 206 205 205 207 208 215 215 212 205 203 206 202 197 197 198 200 204 213 217 215 222 231 225 223 225 221 221 223 226 226 229 230 220 220 240 233 230 223 209 225 242 134 135 137 144 185 180 176 178 178 180 180 185 191 194 195 194 199 201 205 206
184 190 186 179 182 180 171 176 193 199 193 190 185 182 180 177 175 179 194 206 206 205 208 209 208 208 209 207 207 211 210 214 210 204 206 202 194 193 200 209 209 211 216 214 218 231 231 226 228 231 225 222 230 228 232 231 211 208 230 226 221 221 212 212 206 161 162 172 178 184 175 173 176 177 181 182 185 189 193 195 196 200 202 207 210
186 190 185 177 177 178 172 175 195 198 192 193 189 183 176 171 175 180 195 207 207 204 209 213 213 213 214 211 209 210 209 213 212 203 202 201 198 195 199 212 213 212 214 213 214 220 227 228 226 233 230 222 229 235 237 229 209 208 218 210 208 214 213 205 193 176 184 190 184 188 184 174 176 177 180 185 187 190 195 197 200 204 206 210 216
188 189 184 175 173 176 173 178 198 198 189 191 189 184 177 174 179 179 187 202 209 209 210 213 215 218 219 216 212 211 214 215 212 203 198 198 204 199 200 214 216 215 216 215 218 218 219 226 226 226 227 223 227 239 243 223 204 210 208 195 207 214 207 204 194 180 189 198 190 190 192 182 182 180 180 185 189 192 197 200 204 206 209 213 218
191 190 185 174 171 174 173 181 199 197 189 187 182 181 174 173 180 178 182 194 207 212 212 214 217 217 216 217 214 210 213 216 213 210 205 200 202 199 201 218 221 218 221 219 223 226 214 218 229 223 221 224 228 236 239 223 208 216 223 203 207 212 195 199 197 182 192 201 195 187 195 194 186 185 185 186 190 195 199 202 206 207 209 214 219
193 189 185 175 169 173 173 181 198 196 189 183 175 177 173 171 179 180 183 189 196 205 213 218 217 214 214 216 212 209 211 216 212 210 211 205 202 201 201 215 223 221 221 219 230 239 217 212 229 225 222 225 231 233 226 234 213 193 227 222 200 204 192 199 204 191 185 189 200 195 191 200 195 192 191 190 192 197 203 206 207 210 212 216 220
197 190 185 179 169 171 174 179 195 197 191 184 175 177 174 172 178 180 187 192 195 202 209 213 213 210 212 211 206 204 208 214 213 206 204 206 208 209 208 214 222 222 219 221 240 251 224 217 230 227 227 225 231 233 215 238 226 179 207 225 194 197 203 200 195 193 185 183 204 207 192 198 201 199 199 198 198 198 204 210 211 213 215 218 221
199 194 186 181 172 171 174 178 188 195 195 190 183 178 172 171 179 188 199 202 201 204 206 204 203 206 207 204 200 201 204 211 219 215 205 207 211 214 215 218 221 219 217 220 237 251 233 223 230 226 233 231 230 234 211 226 244 205 199 208 195 199 208 202 186 190 193 189 202 208 201 199 200 206 208 205 206 205 205 210 214 215 216 219 222
201 197 189 182 175 171 174 177 182 190 196 195 188 177 168 177 191 201 209 210 208 208 208 202 195 201 203 203 202 201 201 204 216 221 217 212 215 219 220 220 220 217 218 219 226 244 238 227 229 225 234 239 233 234 218 209 235 243 212 192 196 199 200 203 195 185 185 191 197 204 209 205 202 206 212 214 213 212 209 210 214 216 218 220 221
206 198 192 185 177 173 174 177 179 183 190 196 191 177 168 182 199 208 210 210 212 211 211 207 197 198 199 200 204 205 203 201 206 215 221 219 220 223 222 222 221 217 219 220 229 250 241 229 229 225 229 239 242 241 231 212 220 241 239 203 203 194 187 191 201 195 189 195 194 195 207 212 213 210 209 217 218 215 215 214 213 214 218 221 220
216 200 194 189 179 175 174 176 178 177 182 189 189 183 177 186 200 206 207 209 211 212 214 209 201 199 198 197 201 207 207 204 204 207 214 217 219 223 223 224 222 218 219 219 236 258 242 232 230 225 223 226 243 252 243 237 223 213 207 199 202 191 179 178 201 205 196 202 200 195 201 207 217 221 215 217 221 217 219 220 217 214 218 222 219
223 208 195 190 181 178 176 175 179 176 176 180 182 184 185 193 204 204 205 209 207 210 216 211 202 198 197 198 201 205 206 205 205 205 210 216 219 222 224 225 223 219 219 219 237 253 239 236 235 226 224 215 230 247 240 236 222 202 200 190 196 197 183 182 205 212 203 209 216 208 207 206 209 221 221 221 225 221 221 225 223 219 220 224 218
225 214 196 191 182 180 179 175 177 177 175 173 171 177 183 192 205 207 205 203 200 207 216 211 205 201 195 195 200 201 201 202 203 204 210 215 217 218 220 222 223 219 219 221 229 237 233 241 238 223 230 224 223 239 235 215 200 209 218 207 207 208 199 201 208 218 216 212 222 221 217 213 210 216 217 220 227 228 225 224 226 225 225 227 221
228 219 197 191 185 180 181 177 176 175 174 172 167 168 175 187 199 205 207 204 203 210 213 211 211 209 201 197 201 202 199 198 200 202 205 210 211 211 212 215 220 219 219 222 220 223 236 247 239 216 226 231 227 238 233 198 191 214 218 220 221 213 211 215 210 215 219 212 224 234 229 220 215 215 217 221 226 228 228 224 223 226 228 230 227
226 226 201 189 187 181 181 180 177 175 173 174 169 165 166 178 190 200 208 209 212 214 213 216 215 213 209 202 201 205 202 197 199 203 202 204 204 203 206 209 214 217 217 220 216 219 233 244 240 219 222 233 242 252 236 182 189 205 214 227 229 220 216 216 216 220 225 221 225 236 236 231 224 219 220 223 222 217 222 228 225 222 227 231 230
227 223 207 195 191 184 183 179 178 178 173 172 173 168 164 169 179 191 201 203 208 212 213 215 213 212 211 204 199 201 202 199 201 204 202 204 205 204 205 206 209 214 216 217 215 219 229 236 239 233 227 234 252 269 249 184 187 198 214 228 231 231 225 223 229 230 234 236 232 231 236 243 237 225 220 221 222 215 212 223 229 225 227 232 231
256 228 209 205 199 189 186 181 178 181 178 174 176 178 175 173 175 183 192 195 199 203 205 208 208 209 209 206 204 201 198 200 203 206 206 207 208 205 204 206 209 213 215 213 214 217 225 231 234 232 228 232 243 254 244 213 191 198 215 231 236 239 232 230 235 238 242 245 243 231 233 242 232 221 216 216 222 220 211 216 228 227 219 229 235
267 243 214 212 208 197 191 184 180 182 184 180 179 185 188 185 181 182 188 191 194 196 198 201 203 202 203 205 205 202 199 202 206 209 210 210 210 208 207 208 209 211 214 214 214 217 219 225 230 226 224 229 236 244 242 226 205 201 202 221 238 238 236 238 239 240 240 242 244 236 237 239 224 218 216 216 223 221 211 209 214 214 209 222 239
259 246 219 213 212 204 197 191 185 185 189 186 183 188 194 195 191 188 187 188 193 197 197 197 198 200 205 206 202 200 200 203 207 207 208 208 205 208 214 214 212 211 214 214 214 216 218 222 226 222 218 225 235 245 240 231 220 200 183 191 220 224 234 237 236 236 234 233 237 237 243 240 226 227 221 221 227 220 212 214 210 211 216 220 230
279 264 236 217 210 209 206 198 192 191 192 191 189 190 194 198 198 194 191 192 194 196 198 197 195 198 205 206 202 200 200 201 204 204 206 204 195 197 206 212 216 215 214 214 214 216 219 221 222 218 215 219 234 245 243 243 237 205 172 186 198 212 227 215 221 225 225 226 228 232 241 242 232 233 228 226 225 210 212 226 219 214 224 223 212
288 268 251 232 211 209 212 206 198 196 197 197 195 192 194 198 199 195 192 195 193 190 195 195 194 198 202 203 204 202 201 201 201 202 205 205 197 195 197 201 209 212 211 212 213 216 219 220 221 220 219 222 231 241 245 255 249 224 208 211 175 204 222 194 208 210 212 216 216 221 230 248 248 233 238 251 222 206 215 220 218 214 217 220 203
270 250 239 241 228 213 210 209 203 200 203 202 198 194 194 197 199 195 189 192 191 186 193 194 192 198 200 202 206 204 203 203 204 204 205 206 204 201 199 200 205 208 209 209 210 216 217 217 220 220 220 224 225 233 246 259 256 241 227 223 229 220 169 49 353 173 241 226 223 217 205 238 271 244 246 262 139 161 206 194 196 211 212 216 211
288 270 231 237 244 231 213 207 206 205 207 207 203 198 196 198 201 200 194 195 195 191 195 195 194 198 200 201 205 206 206 205 206 206 205 207 206 203 205 205 206 209 210 208 208 213 215 213 215 216 219 221 219 223 236 248 247 239 227 222 238 243 183 183 153 108 1 252 247 231 205 223 272 271 255 245 178 142 182 180 176 197 209 209 210
316 308 260 236 247 251 232 210 205 206 210 210 208 204 199 200 202 204 202 201 202 198 196 198 200 201 201 201 202 204 205 204 205 205 206 209 208 205 207 208 210 213 212 211 210 211 212 211 212 215 218 218 219 224 230 239 236 226 214 211 219 214 201 213 205 162 123 117 261 229 209 224 250 260 247 243 216 171 179 166 165 198 214 195 191
326 317 289 245 238 256 259 232 211 207 210 211 212 210 207 205 204 206 208 207 207 204 197 199 203 201 199 200 199 200 202 203 205 207 209 210 209 206 206 208 211 212 213 213 213 214 212 211 213 215 216 218 222 221 222 237 239 225 208 204 204 196 199 205 201 196 173 178 252 163 172 213 247 260 233 224 232 181 172 163 165 192 215 190 182
339 330 307 268 234 244 259 250 226 213 212 211 213 214 212 210 209 210 211 210 209 207 198 195 197 197 197 197 197 200 202 202 204 208 210 208 206 207 206 206 209 210 211 212 212 215 213 212 214 214 216 218 219 215 211 225 234 227 214 209 200 186 184 179 181 192 195 211 239 232 184 218 219 262 247 236 225 178 174 176 166 169 184 187 178
345 336 321 301 265 244 251 257 246 227 219 215 215 217 217 215 215 215 215 214 212 209 203 196 192 192 195 196 197 199 201 203 203 206 208 205 205 209 208 204 206 207 208 211 213 215 214 213 214 215 217 215 212 211 208 215 224 224 220 214 206 200 201 200 178 181 187 190 196 206 209 202 194 198 218 231 219 182 182 184 178 174 176 181 178
Height
759 758 761 761 762 762 763 764 765 765 766 767 767 768 769 770 771 773 774 775 776 777 778 779 779 780 780 781 782 782 783 784 784 784 785 785 786 787 787 788 789 790 790 791 791 791 792 792 792 792 793 793 794 794 795 796 796 797 797 797 797 798 798 798 799 799 800 800 800 800 801 801 802 802 803 803 803 804 804 805 806 807 807 807 808
759 759 761 761 762 762 763 763 765 765 766 767 767 768 769 770 771 773 774 775 777 777 778 779 779 780 781 781 782 783 784 784 785 785 786 786 787 788 788 789 789 790 791 791 792 792 792 792 793 792 793 794 794 795 795 796 797 797 798 798 798 798 798 799 799 800 800 801 801 801 801 802 802 803 803 804 804 804 805 805 806 807 807 808 809
759 760 760 761 762 762 763 763 764 765 766 767 768 769 769 771 771 773 774 776 777 777 778 779 780 781 781 782 783 784 784 785 786 786 787 787 788 788 789 790 790 791 791 792 792 792 793 793 793 793 794 794 795 796 796 797 797 798 798 798 798 798 799 799 799 800 800 801 801 801 801 802 803 804 804 805 805 805 805 806 806 807 808 809 809
759 760 760 761 762 762 763 763 764 765 766 766 768 769 770 771 772 773 774 776 776 778 778 779 780 781 782 782 783 784 785 785 786 787 787 788 788 789 790 791 791 792 792 792 792 793 793 793 794 794 794 795 796 796 797 797 798 798 799 799 799 799 799 799 799 800 801 801 801 802 802 802 804 805 806 806 806 806 806 806 807 807 808 809 810
759 759 759 760 761 762 762 762 764 764 766 767 768 769 770 771 772 773 774 776 776 778 779 780 780 781 782 783 784 784 785 786 786 787 788 789 789 790 790 791 792 792 792 793 793 793 793 794 794 795 795 796 797 797 798 798 798 799 799 799 799 799 799 799 799 800 801 801 802 802 802 802 804 807 807 807 807 807 807 807 808 808 809 810 810
757 757 758 759 760 761 761 762 763 764 766 767 768 769 770 771 772 773 774 776 777 778 779 780 780 781 782 783 784 784 785 786 787 788 789 789 790 790 791 791 792 792 792 793 793 794 794 795 795 795 796 796 797 797 798 799 799 799 800 799 799 799 799 799 800 800 801 802 802 803 804 802 804 807 808 808 808 808 808 808 809 809 810 810 810
755 756 757 758 759 760 761 761 762 764 765 766 768 769 770 771 772 773 774 776 777 778 779 780 780 781 782 783 784 785 786 787 788 789 789 790 790 790 791 791 791 792 793 793 794 795 795 795 795 796 797 797 798 798 799 799 800 800 800 799 799 799 799 800 800 801 801 802 802 804 805 803 805 807 809 809 809 809 809 810 810 810 810 811 811
755 756 757 758 759 759 760 761 762 763 764 766 768 769 770 771 773 774 775 776 777 778 779 779 780 781 782 783 784 785 786 787 788 789 789 789 790 790 790 791 791 792 793 794 794 795 796 796 796 797 797 798 798 799 799 800 800 800 800 800 799 799 799 800 800 801 801 801 802 804 804 803 805 807 809 809 810 810 810 811 810 811 810 811 811
755 756 757 758 758 758 760 761 762 763 764 766 768 769 771 772 773 774 775 776 777 778 779 779 780 782 782 784 785 786 787 788 788 788 789 789 790 790 791 791 792 793 793 794 795 795 796 796 796 797 797 798 798 799 800 800 800 800 800 800 800 799 799 799 800 800 801 801 803 804 804 803 805 806 808 809 810 810 811 812 811 811 811 811 811
755 755 757 758 757 758 759 761 762 763 765 766 768 770 771 772 774 775 776 776 778 778 779 780 781 783 784 785 786 786 787 787 787 788 789 789 790 791 791 791 792 792 793 794 794 795 796 796 797 797 798 798 799 799 800 800 800 801 801 800 800 799 799 799 799 800 800 801 803 804 804 804 805 807 808 809 810 810 811 811 811 811 811 811 811
754 755 756 756 757 758 759 760 761 763 765 766 768 770 771 773 774 775 776 777 778 779 780 781 782 784 785 786 786 786 786 786 787 788 789 790 791 791 792 792 792 792 793 794 794 795 796 796 797 797 798 798 799 799 800 800 800 801 801 800 800 799 799 799 799 799 800 801 803 803 804 804 805 807 808 809 809 810 811 811 811 811 812 812 811
753 755 756 756 756 758 759 760 761 763 764 766 769 770 772 773 775 776 777 778 779 780 781 783 784 785 786 786 786 786 786 787 788 789 790 790 791 792 792 792 792 792 793 793 794 795 796 796 797 797 798 798 799 799 800 800 800 800 800 800 799 799 799 799 799 798 799 801 802 803 804 805 806 807 808 809 809 810 810 810 811 811 812 812 812
753 754 755 755 756 758 759 761 762 764 765 767 769 771 773 774 776 777 778 779 780 782 783 785 785 786 786 787 787 787 787 788 789 789 790 790 791 792 792 792 792 793 793 794 794 795 796 796 797 797 798 798 799 799 799 799 800 800 800 800 799 799 798 798 798 798 800 801 802 803 803 804 806 807 807 808 809 809 810 810 811 811 812 811 812
753 753 754 755 756 758 758 761 763 765 767 769 771 772 774 775 777 778 779 781 782 784 785 786 787 787 787 787 788 788 788 789 789 789 790 791 791 792 792 793 793 793 793 794 795 795 796 796 797 797 798 798 799 799 799 799 799 799 800 800 799 799 798 797 797 798 800 801 801 802 803 804 805 806 807 807 808 809 809 810 811 811 811 811 812
752 752 754 755 756 758 759 762 764 766 769 770 772 773 775 776 777 778 780 782 784 785 786 788 788 788 788 788 788 788 789 789 790 790 791 792 792 792 792 793 793 794 794 794 795 796 796 797 798 798 798 798 799 799 799 799 799 799 800 800 799 799 798 797 797 797 799 800 800 801 802 804 804 805 806 807 808 809 809 810 810 811 811 811 811
752 752 753 755 756 757 760 762 764 767 770 772 774 774 775 776 777 778 780 782 784 786 787 788 788 788 788 788 788 788 789 790 790 791 792 792 793 793 793 793 793 794 795 795 796 796 797 797 798 798 799 799 799 799 799 799 799 800 800 800 799 798 798 797 797 796 798 800 799 800 802 803 804 804 805 807 808 808 809 809 810 810 811 811 811
751 752 753 754 756 758 760 762 765 768 770 773 774 774 774 775 777 779 781 783 784 785 785 786 786 786 787 788 788 789 790 790 791 791 792 793 793 794 794 794 794 795 795 796 796 797 798 798 799 799 799 799 799 799 799 799 799 800 800 800 799 798 798 797 797 797 798 799 798 800 801 802 803 804 805 806 807 808 809 809 810 810 810 811 811
750 752 753 754 756 758 760 763 766 769 772 772 771 771 773 775 778 781 783 783 783 782 782 782 783 784 785 787 788 789 790 791 792 792 793 794 794 795 795 795 795 795 796 796 797 797 798 798 799 799 799 799 799 799 799 800 800 801 800 800 799 798 798 797 797 797 798 798 798 800 801 802 803 803 805 806 807 808 809 809 809 810 810 811 811
750 751 752 754 756 758 761 764 768 771 770 768 768 770 773 776 780 783 783 783 782 782 782 782 782 783 784 786 788 789 791 791 792 793 793 794 795 795 796 796 796 796 797 797 797 798 798 799 799 799 799 799 799 800 800 800 801 801 801 800 799 798 797 797 797 797 798 798 798 800 800 801 802 803 804 805 806 807 808 808 809 809 810 810 810
749 750 752 753 755 759 761 764 768 768 764 763 767 769 773 776 780 781 781 782 782 782 782 782 782 783 784 785 787 789 791 792 792 793 794 795 795 796 796 797 798 798 798 798 798 798 798 799 799 799 800 799 800 800 800 801 801 801 801 800 799 798 798 797 797 797 798 797 798 799 800 801 802 802 803 805 806 807 808 808 809 809 809 809 810
748 749 750 752 754 758 760 763 765 763 760 762 766 768 771 774 778 778 778 780 781 781 781 782 782 782 783 785 787 789 790 791 793 794 795 795 796 796 797 798 798 799 799 799 799 799 799 799 799 799 799 800 800 800 801 801 802 801 801 801 800 799 798 797 797 798 798 797 798 799 800 800 801 802 803 804 805 806 807 808 808 808 808 809 810
746 747 749 750 753 756 759 762 762 760 760 763 765 767 771 773 776 777 778 779 779 780 781 782 782 782 783 784 786 787 789 791 792 793 794 795 796 797 798 799 799 800 800 800 800 799 799 799 799 800 800 800 800 800 801 801 802 802 801 801 801 799 798 797 796 798 797 796 798 798 799 800 800 801 802 804 805 806 807 807 808 808 808 809 810
743 745 747 749 751 755 758 760 759 759 760 762 764 767 770 772 776 777 778 779 778 779 780 781 781 782 783 784 786 787 789 791 792 793 794 795 796 797 798 800 800 801 801 801 801 800 800 800 800 800 800 800 800 801 801 801 801 801 801 801 801 800 799 797 797 797 796 796 798 798 799 800 800 801 802 804 805 806 807 807 808 808 808 809 809
740 742 744 747 750 753 756 758 758 758 760 762 764 767 769 772 775 777 777 776 776 776 777 779 780 781 783 784 786 787 789 790 792 793 794 796 797 798 799 800 801 802 802 802 802 801 800 800 800 800 800 800 801 801 801 801 801 801 801 801 800 800 800 799 798 797 796 797 797 798 799 799 799 800 801 803 804 805 806 807 807 808 808 809 809
737 740 741 744 747 751 754 755 756 756 759 761 763 766 768 771 774 776 775 773 774 775 776 777 778 780 782 784 786 787 789 790 791 793 794 796 797 799 800 801 801 802 802 802 802 801 800 800 800 800 800 800 800 800 800 800 800 800 801 801 800 800 800 799 799 797 796 797 797 798 799 798 799 800 801 802 804 805 805 806 807 807 808 808 809
734 737 738 742 745 749 751 752 753 754 756 758 761 765 767 770 773 775 774 773 774 776 777 777 777 778 781 783 785 787 789 790 791 792 794 795 796 797 799 801 802 802 801 801 801 801 800 800 800 800 800 800 800 800 799 800 800 800 800 800 800 800 800 799 799 797 796 797 797 798 798 798 799 799 801 802 803 804 805 805 806 807 807 808 809
731 733 736 740 743 747 749 750 749 751 753 756 760 763 766 770 772 774 774 774 774 775 777 776 776 778 780 783 784 786 789 790 790 791 793 794 794 792 796 800 801 799 798 799 799 799 799 800 800 800 800 800 800 799 798 799 799 799 799 799 800 800 799 799 799 798 797 797 797 797 798 798 798 799 800 801 802 803 804 805 806 807 807 808 809
729 731 734 737 741 745 748 747 745 748 751 754 757 761 765 769 771 773 774 774 774 775 775 775 775 777 779 782 784 786 788 790 790 790 791 791 791 790 794 799 798 796 796 797 797 798 798 799 800 800 800 800 799 798 797 798 798 798 798 798 799 799 798 799 798 798 797 797 797 798 798 798 798 799 800 801 802 803 804 805 805 806 807 808 809
727 729 732 735 739 743 746 746 743 745 749 752 756 760 764 768 769 771 773 773 772 773 773 773 774 776 778 780 782 785 787 789 788 788 789 789 790 791 795 796 795 795 796 796 796 796 797 797 799 799 799 799 798 797 797 797 797 797 798 797 798 798 798 798 798 797 797 797 797 797 798 798 798 799 799 800 801 802 803 804 805 806 807 808 809
726 728 731 734 737 742 745 744 742 744 747 750 754 758 762 765 766 768 769 770 770 770 770 770 772 775 777 778 780 782 784 786 786 786 787 788 789 791 794 795 795 795 796 795 794 795 796 796 797 798 798 798 797 797 797 796 796 797 797 797 796 796 797 797 797 797 797 797 797 797 798 798 798 799 799 799 800 802 803 804 804 805 806 808 809
727 728 730 733 736 740 743 743 743 744 746 748 752 755 760 762 764 765 766 766 767 767 767 768 771 773 775 776 778 780 781 782 783 784 785 786 787 790 792 794 794 795 795 794 793 794 794 795 796 796 797 797 797 796 796 796 795 795 796 796 796 796 797 797 797 796 797 797 797 797 797 798 798 798 799 799 800 801 802 803 804 805 806 807 808
726 728 730 732 734 738 741 743 743 744 746 748 750 754 758 761 762 762 762 763 764 765 766 768 770 772 774 775 777 778 780 780 780 780 781 783 785 788 790 792 793 794 794 794 792 793 793 794 795 795 795 796 796 795 795 795 795 794 794 795 794 795 796 797 796 796 796 797 797 797 797 797 797 798 799 799 800 800 801 803 804 805 806 806 807
726 728 729 731 733 736 739 742 743 744 747 748 750 754 757 759 760 759 760 761 763 764 766 768 771 772 773 775 777 778 780 780 778 778 778 780 783 786 789 790 791 792 793 792 792 792 792 793 793 794 794 794 795 794 794 794 794 793 793 793 794 795 796 796 796 796 796 796 796 796 796 796 797 798 798 799 799 800 801 802 803 804 805 806 806
728 728 729 730 732 735 738 741 743 745 746 749 752 754 757 757 756 756 757 759 762 764 765 768 770 771 773 774 776 777 778 779 778 778 777 779 781 784 787 788 789 791 791 791 791 791 791 791 792 793 793 793 793 793 793 793 793 793 793 793 794 795 795 795 796 795 796 796 796 796 796 796 797 797 798 798 799 800 801 802 802 804 805 805 805
729 728 728 729 731 733 736 739 741 744 746 749 752 754 755 754 751 751 754 757 760 762 764 766 768 769 770 772 774 775 776 777 778 778 778 779 780 782 785 786 788 789 790 790 790 790 790 790 790 791 791 792 793 792 792 792 792 793 792 793 794 795 794 795 795 795 795 795 795 796 796 796 796 797 797 798 798 799 800 801 802 803 804 804 805
730 729 728 729 731 732 735 737 740 743 746 749 752 754 753 749 746 748 752 755 758 760 761 763 765 766 767 769 771 771 772 774 775 776 777 777 779 781 783 785 786 788 788 789 789 788 788 789 789 790 790 791 793 792 792 792 791 792 793 793 795 795 794 794 794 794 795 794 794 795 795 796 796 796 797 797 798 798 800 801 802 802 803 803 804
729 728 728 729 730 732 734 737 739 742 745 749 751 752 752 748 745 746 749 753 756 757 758 760 762 763 765 766 768 769 769 769 770 772 773 775 776 778 780 783 785 785 786 786 787 787 787 788 788 789 789 790 792 792 791 791 790 791 793 794 795 795 794 794 794 793 793 793 793 794 795 795 796 796 797 797 797 798 799 800 801 801 802 802 803
729 728 728 728 729 731 734 736 739 741 744 748 750 751 751 749 746 745 747 751 754 756 757 758 759 761 763 765 766 768 768 768 769 769 770 772 774 775 778 780 782 783 784 784 785 785 785 786 786 787 788 789 790 790 790 789 790 791 793 794 794 794 794 793 793 792 792 792 792 793 794 795 796 796 797 797 797 797 798 799 800 800 801 801 802
728 729 728 728 729 731 732 735 738 740 742 746 749 750 750 750 748 746 747 749 752 754 755 756 758 760 761 763 765 767 768 769 769 769 770 771 771 772 774 777 779 780 782 782 783 783 783 784 785 786 786 787 787 788 788 788 789 792 793 793 793 793 793 793 792 792 791 791 791 792 793 794 795 796 796 796 796 797 797 798 799 799 800 801 801
727 728 729 729 729 730 731 733 736 738 741 743 747 749 751 750 749 748 747 747 749 751 753 755 756 759 760 762 764 765 767 768 768 769 771 771 770 769 770 773 776 778 779 780 781 781 783 785 785 785 785 785 786 787 787 788 790 792 792 793 793 793 792 792 791 791 790 790 791 792 792 792 793 794 795 796 796 796 797 797 798 799 799 800 801
731 728 729 730 729 729 730 731 734 736 738 740 743 745 748 749 748 748 746 746 747 749 751 753 754 756 758 760 762 764 766 767 768 769 770 771 770 770 770 771 773 776 777 778 779 780 782 784 784 785 785 785 786 786 787 788 789 791 792 792 792 792 791 791 790 790 790 790 791 792 792 792 792 793 794 795 795 796 797 797 798 798 799 800 800
733 730 728 730 730 730 730 730 731 734 735 737 738 741 744 745 745 746 746 746 746 747 748 750 752 754 756 758 760 763 765 766 767 768 768 769 769 770 771 772 773 774 776 777 778 779 780 782 783 783 784 785 785 786 787 788 788 789 790 791 791 791 790 789 790 790 790 790 790 791 791 792 792 792 793 794 794 795 796 797 798 798 799 800 800
729 729 727 728 730 730 730 730 730 731 733 734 734 737 739 741 743 743 744 745 745 745 746 747 750 752 753 755 757 759 762 763 764 766 766 766 767 769 771 773 774 774 775 776 777 777 779 781 782 782 783 784 784 785 787 787 787 787 789 791 791 791 790 789 788 789 789 789 789 790 790 790 791 792 792 793 794 796 798 799 799 799 799 800 799
728 731 729 727 727 729 729 729 730 730 730 731 731 733 735 738 740 741 742 743 744 745 746 747 748 749 751 752 754 756 758 759 761 763 763 764 765 767 770 772 773 774 774 775 776 777 778 779 781 782 783 783 783 783 785 788 789 788 789 790 789 790 791 789 786 787 787 788 788 789 789 790 792 792 792 793 796 797 799 800 800 800 799 799 799
728 734 734 729 725 726 728 728 729 729 729 729 729 730 732 734 736 738 740 741 742 743 744 744 745 746 747 748 750 752 754 756 758 760 761 762 764 766 768 770 771 772 772 773 775 776 778 779 781 781 782 782 783 783 784 787 791 789 788 788 789 790 790 786 785 786 786 787 788 788 788 789 791 792 793 796 799 799 799 799 798 799 799 799 799
725 729 732 730 727 724 724 726 726 727 728 728 728 727 728 730 732 734 736 737 738 739 739 740 741 742 743 745 747 749 751 753 755 757 758 760 762 765 767 769 770 770 771 772 773 775 777 779 780 781 781 782 783 784 784 786 790 789 787 786 786 787 786 785 786 788 786 786 787 787 788 789 790 790 792 795 799 799 799 800 800 798 798 799 799
722 722 724 728 729 725 722 723 724 725 726 727 727 726 726 727 728 730 731 733 734 735 736 737 738 739 741 742 744 746 748 750 752 754 756 757 759 762 765 767 768 769 770 770 771 773 775 777 779 779 781 782 782 783 785 787 789 789 787 785 784 784 784 785 786 788 789 789 787 787 787 788 788 788 789 792 796 797 797 800 802 799 797 799 798
720 719 720 723 728 727 723 721 721 722 723 725 725 725 724 724 725 727 728 730 730 732 733 734 736 737 739 740 742 744 746 748 750 751 753 754 756 759 762 764 766 768 769 769 770 772 774 775 777 777 779 780 780 781 784 787 789 788 785 784 783 784 784 784 785 786 789 790 789 787 787 787 787 787 788 790 793 794 794 798 801 799 797 798 798
720 719 719 720 724 728 727 723 720 720 720 722 723 723 723 723 724 724 725 726 728 729 730 732 733 735 737 738 740 742 744 746 748 749 750 752 754 756 759 761 763 765 768 769 769 771 772 773 774 775 776 777 777 778 779 783 787 785 782 782 783 783 784 784 785 786 787 789 789 788 787 786 787 787 788 789 790 792 793 795 798 798 796 797 798
721 720 719 720 723 727 728 724 719 718 718 719 720 721 722 722 723 722 722 723 725 726 727 728 730 732 734 735 737 739 740 743 745 746 748 750 752 753 755 757 759 762 765 766 767 769 770 772 773 774 774 774 774 775 775 779 784 783 781 781 782 782 783 784 785 786 786 787 788 788 787 786 786 786 787 787 788 790 791 793 796 796 795 796 797
724 722 722 721 721 723 724 723 719 716 715 716 717 720 721 721 721 721 721 721 722 723 724 725 726 728 730 732 734 735 737 739 741 743 745 747 749 750 752 754 756 759 761 762 763 765 767 769 771 772 772 772 772 773 775 777 780 781 780 780 780 780 780 782 783 784 785 786 787 787 786 786 786 786 787 786 787 788 790 792 794 795 794 795 796